Time,TemperatureF,DewpointF,PressureIn,WindDirection,WindDirectionDegrees,WindSpeedMPH,WindSpeedGustMPH,Humidity,HourlyPrecipIn,Conditions,Clouds,dailyrainin,SoftwareType,DateUTC
2013-03-25 00:00:00,43.6,32.2,29.75,SW,233,7.0,7.0,64,0.00,,BKN050,0.00,VWS V14.01,2013-03-25 04:00:00,
2013-03-25 00:05:00,43.4,32.0,29.75,WSW,257,5.0,18.0,64,0.00,,BKN050,0.00,VWS V14.01,2013-03-25 04:05:00,
2013-03-25 00:10:00,43.3,32.0,29.75,WSW,248,2.0,18.0,64,0.00,,BKN050,0.00,VWS V14.01,2013-03-25 04:10:00,
2013-03-25 00:15:00,43.2,32.2,29.75,WNW,289,0.0,18.0,65,0.00,,BKN050,0.00,VWS V14.01,2013-03-25 04:15:00,
2013-03-25 00:20:00,43.0,32.4,29.75,WSW,254,5.0,18.0,66,0.00,,BKN050,0.00,VWS V14.01,2013-03-25 04:20:00,
2013-03-25 00:25:00,43.0,32.1,29.75,WNW,285,0.0,18.0,65,0.00,,BKN050,0.00,VWS V14.01,2013-03-25 04:25:00,
2013-03-25 00:30:00,42.9,32.0,29.75,West,259,4.0,9.0,65,0.00,,BKN050,0.00,VWS V14.01,2013-03-25 04:30:00,
2013-03-25 00:35:00,42.8,31.9,29.75,West,261,2.0,9.0,65,0.00,,OVC044,0.00,VWS V14.01,2013-03-25 04:35:00,
2013-03-25 00:40:00,42.8,31.9,29.75,WSW,239,1.0,9.0,65,0.00,,OVC044,0.00,VWS V14.01,2013-03-25 04:40:00,
2013-03-25 00:45:00,42.6,31.7,29.75,WNW,284,4.0,16.0,65,0.00,,OVC044,0.00,VWS V14.01,2013-03-25 04:45:00,
2013-03-25 00:50:00,42.6,32.0,29.75,SW,225,6.0,16.0,66,0.00,,OVC044,0.00,VWS V14.01,2013-03-25 04:50:00,
2013-03-25 00:55:00,42.4,31.9,29.75,SW,225,3.0,16.0,66,0.00,,OVC044,0.00,VWS V14.01,2013-03-25 04:55:00,
2013-03-25 01:00:00,42.3,32.1,29.75,WNW,296,10.0,10.0,67,0.00,,OVC044,0.00,VWS V14.01,2013-03-25 05:00:00,
2013-03-25 01:05:00,42.2,32.0,29.76,SSW,200,7.0,11.0,67,0.00,,OVC044,0.00,VWS V14.01,2013-03-25 05:05:00,
2013-03-25 01:10:00,42.2,31.7,29.76,WNW,288,0.0,13.0,66,0.00,,OVC044,0.00,VWS V14.01,2013-03-25 05:10:00,
2013-03-25 01:15:00,42.1,32.3,29.76,SW,221,2.0,13.0,68,0.00,,OVC044,0.00,VWS V14.01,2013-03-25 05:15:00,
2013-03-25 01:20:00,42.0,31.5,29.76,WSW,244,7.0,13.0,66,0.00,,OVC044,0.00,VWS V14.01,2013-03-25 05:20:00,
2013-03-25 01:25:00,42.0,31.5,29.76,North,5,2.0,13.0,66,0.00,,OVC044,0.00,VWS V14.01,2013-03-25 05:25:00,
2013-03-25 01:30:00,41.9,31.4,29.75,NNW,336,4.0,12.0,66,0.00,,OVC044,0.00,VWS V14.01,2013-03-25 05:30:00,
2013-03-25 01:35:00,41.8,30.9,29.76,SW,230,1.0,15.0,65,0.00,,OVC044,0.00,VWS V14.01,2013-03-25 05:35:00,
2013-03-25 01:40:00,41.8,31.3,29.75,SW,221,1.0,15.0,66,0.00,,OVC044,0.00,VWS V14.01,2013-03-25 05:40:00,
2013-03-25 01:45:00,41.7,31.6,29.76,WSW,244,5.0,15.0,67,0.00,,OVC044,0.00,VWS V14.01,2013-03-25 05:45:00,
2013-03-25 01:50:00,41.7,31.6,29.76,WNW,301,2.0,15.0,67,0.00,,OVC044,0.00,VWS V14.01,2013-03-25 05:50:00,
2013-03-25 01:55:00,41.6,31.8,29.76,WNW,282,0.0,17.0,68,0.00,,OVC044,0.00,VWS V14.01,2013-03-25 05:55:00,
2013-03-25 02:00:00,41.6,31.5,29.76,NW,306,3.0,5.0,67,0.00,,OVC044,0.00,VWS V14.01,2013-03-25 06:00:00,
2013-03-25 02:05:00,41.5,31.7,29.76,WSW,238,1.0,6.0,68,0.00,,OVC044,0.00,VWS V14.01,2013-03-25 06:05:00,
2013-03-25 02:10:00,41.4,31.6,29.76,SW,217,3.0,7.0,68,0.00,,OVC044,0.00,VWS V14.01,2013-03-25 06:10:00,
2013-03-25 02:15:00,41.4,32.0,29.77,North,5,0.0,10.0,69,0.00,,OVC044,0.00,VWS V14.01,2013-03-25 06:15:00,
2013-03-25 02:20:00,41.4,31.6,29.77,SSW,206,2.0,10.0,68,0.00,,OVC044,0.00,VWS V14.01,2013-03-25 06:20:00,
2013-03-25 02:25:00,41.3,31.5,29.77,SW,232,4.0,10.0,68,0.00,,OVC044,0.00,VWS V14.01,2013-03-25 06:25:00,
2013-03-25 02:30:00,41.3,30.8,29.77,NNE,20,4.0,8.0,66,0.00,,OVC044,0.00,VWS V14.01,2013-03-25 06:30:00,
2013-03-25 02:35:00,41.2,30.7,29.77,NW,311,4.0,12.0,66,0.00,,OVC042,0.00,VWS V14.01,2013-03-25 06:35:00,
2013-03-25 02:40:00,41.0,30.1,29.77,West,263,3.0,12.0,65,0.00,,OVC042,0.00,VWS V14.01,2013-03-25 06:40:00,
2013-03-25 02:45:00,40.9,30.1,29.77,West,281,6.0,12.0,65,0.00,,OVC042,0.00,VWS V14.01,2013-03-25 06:45:00,
2013-03-25 02:50:00,40.8,30.7,29.77,WSW,252,0.0,12.0,67,0.00,,OVC042,0.00,VWS V14.01,2013-03-25 06:50:00,
2013-03-25 02:55:00,40.7,30.2,29.77,SW,215,6.0,15.0,66,0.00,,OVC042,0.00,VWS V14.01,2013-03-25 06:55:00,
2013-03-25 03:00:00,40.7,29.9,29.78,SW,228,8.0,8.0,65,0.00,,OVC042,0.00,VWS V14.01,2013-03-25 07:00:00,
2013-03-25 03:05:00,40.5,29.3,29.78,SW,227,6.0,19.0,64,0.00,,OVC042,0.00,VWS V14.01,2013-03-25 07:05:00,
2013-03-25 03:10:00,40.4,29.2,29.77,West,261,7.0,19.0,64,0.00,,OVC042,0.00,VWS V14.01,2013-03-25 07:10:00,
2013-03-25 03:15:00,40.2,28.6,29.78,SW,228,4.0,19.0,63,0.00,,OVC042,0.00,VWS V14.01,2013-03-25 07:15:00,
2013-03-25 03:20:00,40.0,28.4,29.77,WSW,241,9.0,19.0,63,0.00,,OVC042,0.00,VWS V14.01,2013-03-25 07:20:00,
2013-03-25 03:25:00,39.9,28.0,29.78,SSW,202,3.0,19.0,62,0.00,,OVC042,0.00,VWS V14.01,2013-03-25 07:25:00,
2013-03-25 03:30:00,39.8,27.9,29.78,WSW,244,8.0,8.0,62,0.00,,OVC042,0.00,VWS V14.01,2013-03-25 07:30:00,
2013-03-25 03:35:00,39.7,27.4,29.78,NW,310,6.0,13.0,61,0.00,,OVC033,0.00,VWS V14.01,2013-03-25 07:35:00,
2013-03-25 03:40:00,39.6,26.9,29.78,East,86,6.0,13.0,60,0.00,,OVC033,0.00,VWS V14.01,2013-03-25 07:40:00,
2013-03-25 03:45:00,39.5,26.8,29.78,SW,232,10.0,16.0,60,0.00,,OVC033,0.00,VWS V14.01,2013-03-25 07:45:00,
2013-03-25 03:50:00,39.3,26.2,29.78,SW,215,8.0,16.0,59,0.00,,OVC033,0.00,VWS V14.01,2013-03-25 07:50:00,
2013-03-25 03:55:00,39.2,26.5,29.78,East,80,0.0,16.0,60,0.00,,OVC033,0.00,VWS V14.01,2013-03-25 07:55:00,
2013-03-25 04:00:00,39.2,26.9,29.78,West,279,9.0,22.0,61,0.00,,OVC033,0.00,VWS V14.01,2013-03-25 08:00:00,
2013-03-25 04:05:00,39.1,26.4,29.78,WNW,289,7.0,22.0,60,0.00,,OVC033,0.00,VWS V14.01,2013-03-25 08:05:00,
2013-03-25 04:10:00,39.1,26.4,29.78,NW,311,2.0,22.0,60,0.00,,OVC033,0.00,VWS V14.01,2013-03-25 08:10:00,
2013-03-25 04:15:00,39.0,27.1,29.79,SW,226,1.0,22.0,62,0.00,,OVC033,0.00,VWS V14.01,2013-03-25 08:15:00,
2013-03-25 04:20:00,39.0,25.9,29.79,NNW,333,3.0,22.0,59,0.00,,OVC033,0.00,VWS V14.01,2013-03-25 08:20:00,
2013-03-25 04:25:00,39.0,25.9,29.79,SSW,206,5.0,22.0,59,0.00,,OVC033,0.00,VWS V14.01,2013-03-25 08:25:00,
2013-03-25 04:30:00,38.9,26.2,29.79,SSW,200,3.0,6.0,60,0.00,,OVC033,0.00,VWS V14.01,2013-03-25 08:30:00,
2013-03-25 04:35:00,38.8,26.5,29.79,West,273,2.0,8.0,61,0.00,,OVC040,0.00,VWS V14.01,2013-03-25 08:35:00,
2013-03-25 04:40:00,38.8,26.1,29.79,WSW,243,7.0,10.0,60,0.00,,OVC040,0.00,VWS V14.01,2013-03-25 08:40:00,
2013-03-25 04:45:00,38.7,26.4,29.79,SSW,207,4.0,11.0,61,0.00,,OVC040,0.00,VWS V14.01,2013-03-25 08:45:00,
2013-03-25 04:50:00,38.8,25.7,29.80,WSW,250,3.0,22.0,59,0.00,,OVC040,0.00,VWS V14.01,2013-03-25 08:50:00,
2013-03-25 04:55:00,38.8,25.7,29.80,SW,229,1.0,22.0,59,0.00,,OVC040,0.00,VWS V14.01,2013-03-25 08:55:00,
2013-03-25 05:00:00,38.7,26.4,29.80,WSW,246,3.0,3.0,61,0.00,,OVC040,0.00,VWS V14.01,2013-03-25 09:00:00,
2013-03-25 05:05:00,38.7,26.0,29.80,WSW,249,5.0,15.0,60,0.00,,OVC040,0.00,VWS V14.01,2013-03-25 09:05:00,
2013-03-25 05:10:00,38.7,25.6,29.80,WSW,248,5.0,20.0,59,0.00,,OVC040,0.00,VWS V14.01,2013-03-25 09:10:00,
2013-03-25 05:15:00,38.7,25.6,29.80,SSE,157,1.0,20.0,59,0.00,,OVC040,0.00,VWS V14.01,2013-03-25 09:15:00,
2013-03-25 05:20:00,38.6,25.9,29.80,West,269,2.0,20.0,60,0.00,,OVC040,0.00,VWS V14.01,2013-03-25 09:20:00,
2013-03-25 05:25:00,38.6,26.3,29.81,NNW,344,2.0,20.0,61,0.00,,OVC040,0.00,VWS V14.01,2013-03-25 09:25:00,
2013-03-25 05:30:00,38.5,26.2,29.81,SW,228,5.0,9.0,61,0.00,,OVC040,0.00,VWS V14.01,2013-03-25 09:30:00,
2013-03-25 05:35:00,38.4,26.5,29.81,SW,221,1.0,11.0,62,0.00,,OVC040,0.00,VWS V14.01,2013-03-25 09:35:00,
2013-03-25 05:40:00,38.3,26.0,29.81,West,273,6.0,14.0,61,0.00,,OVC040,0.00,VWS V14.01,2013-03-25 09:40:00,
2013-03-25 05:45:00,38.3,26.0,29.81,ENE,60,4.0,14.0,61,0.00,,OVC040,0.00,VWS V14.01,2013-03-25 09:45:00,
2013-03-25 05:50:00,38.3,26.4,29.81,West,262,4.0,17.0,62,0.00,,OVC040,0.00,VWS V14.01,2013-03-25 09:50:00,
2013-03-25 05:55:00,38.2,26.3,29.81,West,279,1.0,17.0,62,0.00,,OVC040,0.00,VWS V14.01,2013-03-25 09:55:00,
2013-03-25 06:00:00,38.1,26.2,29.81,West,281,2.0,10.0,62,0.00,,OVC040,0.00,VWS V14.01,2013-03-25 10:00:00,
2013-03-25 06:05:00,38.0,26.1,29.81,West,277,5.0,10.0,62,0.00,,OVC040,0.00,VWS V14.01,2013-03-25 10:05:00,
2013-03-25 06:10:00,38.0,25.8,29.81,NNW,342,2.0,11.0,61,0.00,,OVC040,0.00,VWS V14.01,2013-03-25 10:10:00,
2013-03-25 06:15:00,37.9,25.3,29.81,SSW,209,1.0,16.0,60,0.00,,OVC040,0.00,VWS V14.01,2013-03-25 10:15:00,
2013-03-25 06:20:00,37.9,25.3,29.82,NNW,340,3.0,16.0,60,0.00,,OVC040,0.00,VWS V14.01,2013-03-25 10:20:00,
2013-03-25 06:25:00,37.9,24.9,29.82,North,5,5.0,16.0,59,0.00,,OVC040,0.00,VWS V14.01,2013-03-25 10:25:00,
2013-03-25 06:30:00,37.8,24.4,29.82,WSW,254,1.0,4.0,58,0.00,,OVC040,0.00,VWS V14.01,2013-03-25 10:30:00,
2013-03-25 06:35:00,37.8,24.8,29.82,SW,217,3.0,9.0,59,0.00,,OVC040,0.00,VWS V14.01,2013-03-25 10:35:00,
2013-03-25 06:40:00,37.7,24.7,29.82,SSW,207,5.0,11.0,59,0.00,,OVC047,0.00,VWS V14.01,2013-03-25 10:40:00,
2013-03-25 06:44:00,37.7,25.1,29.82,WSW,254,0.0,13.0,60,0.00,,OVC047,0.00,VWS V14.01,2013-03-25 10:44:00,
2013-03-25 06:49:00,37.7,25.1,29.82,NW,308,4.0,13.0,60,0.00,,OVC047,0.00,VWS V14.01,2013-03-25 10:49:00,
2013-03-25 06:55:00,37.6,25.0,29.83,SW,214,8.0,19.0,60,0.00,,OVC047,0.00,VWS V14.01,2013-03-25 10:55:00,
2013-03-25 07:00:00,37.6,25.0,29.82,SSW,197,4.0,6.0,60,0.00,,OVC047,0.00,VWS V14.01,2013-03-25 11:00:00,
2013-03-25 07:05:00,37.5,24.9,29.83,WNW,288,1.0,11.0,60,0.00,,OVC047,0.00,VWS V14.01,2013-03-25 11:05:00,
2013-03-25 07:10:00,37.4,25.2,29.83,WSW,238,4.0,11.0,61,0.00,,OVC047,0.00,VWS V14.01,2013-03-25 11:10:00,
2013-03-25 07:15:00,37.4,24.8,29.83,SW,219,3.0,11.0,60,0.00,,OVC047,0.00,VWS V14.01,2013-03-25 11:15:00,
2013-03-25 07:20:00,37.3,25.1,29.83,SW,219,7.0,14.0,61,0.00,,OVC047,0.00,VWS V14.01,2013-03-25 11:20:00,
2013-03-25 07:24:00,37.2,25.0,29.83,WNW,286,4.0,14.0,61,0.00,,OVC047,0.00,VWS V14.01,2013-03-25 11:24:00,
2013-03-25 07:29:00,37.1,25.3,29.84,SSW,207,5.0,8.0,62,0.00,,OVC047,0.00,VWS V14.01,2013-03-25 11:29:00,
2013-03-25 07:30:00,37.1,25.3,29.84,WSW,253,8.0,14.0,62,0.00,,OVC060,0.00,VWS V14.01,2013-03-25 11:30:00,
2013-03-25 07:34:00,37.1,25.7,29.84,SW,214,2.0,8.0,63,0.00,,OVC047,0.00,VWS V14.01,2013-03-25 11:34:00,
2013-03-25 07:39:00,37.1,26.1,29.83,West,261,0.0,8.0,64,0.00,,OVC043,0.00,VWS V14.01,2013-03-25 11:39:00,
2013-03-25 07:44:00,37.0,25.6,29.84,WNW,289,11.0,16.0,63,0.00,,OVC043,0.00,VWS V14.01,2013-03-25 11:44:00,
2013-03-25 07:49:00,36.9,25.1,29.84,SW,219,1.0,16.0,62,0.00,,OVC043,0.00,VWS V14.01,2013-03-25 11:49:00,
2013-03-25 07:54:00,36.8,25.0,29.84,SSW,212,4.0,16.0,62,0.00,,OVC043,0.00,VWS V14.01,2013-03-25 11:54:00,
2013-03-25 07:59:00,36.8,24.6,29.84,WSW,247,4.0,4.0,61,0.00,,OVC043,0.00,VWS V14.01,2013-03-25 11:59:00,
2013-03-25 08:00:00,36.8,24.6,29.84,West,260,3.0,16.0,61,0.00,,OVC060,0.00,VWS V14.01,2013-03-25 12:00:00,
2013-03-25 08:04:00,36.8,25.4,29.84,South,191,3.0,7.0,63,0.00,,OVC043,0.00,VWS V14.01,2013-03-25 12:04:00,
2013-03-25 08:09:00,36.7,24.5,29.84,NE,48,3.0,11.0,61,0.00,,OVC043,0.00,VWS V14.01,2013-03-25 12:09:00,
2013-03-25 08:14:00,36.7,24.5,29.85,WSW,243,0.0,11.0,61,0.00,,OVC043,0.00,VWS V14.01,2013-03-25 12:14:00,
2013-03-25 08:19:00,36.6,24.0,29.85,NW,307,4.0,11.0,60,0.00,,OVC043,0.00,VWS V14.01,2013-03-25 12:19:00,
2013-03-25 08:24:00,36.6,24.0,29.85,WSW,250,1.0,11.0,60,0.00,,OVC043,0.00,VWS V14.01,2013-03-25 12:24:00,
2013-03-25 08:29:00,36.6,23.6,29.85,SSW,193,1.0,4.0,59,0.00,,OVC043,0.00,VWS V14.01,2013-03-25 12:29:00,
2013-03-25 08:30:00,36.6,23.6,29.85,SSW,194,3.0,13.0,59,0.00,,OVC060,0.00,VWS V14.01,2013-03-25 12:30:00,
2013-03-25 08:34:00,36.5,23.5,29.86,SW,219,4.0,8.0,59,0.00,,OVC043,0.00,VWS V14.01,2013-03-25 12:34:00,
2013-03-25 08:39:00,36.5,24.0,29.86,NNE,17,1.0,12.0,60,0.00,,OVC044,0.00,VWS V14.01,2013-03-25 12:39:00,
2013-03-25 08:45:00,36.5,23.1,29.86,WSW,257,5.0,15.0,58,0.00,,OVC044,0.00,VWS V14.01,2013-03-25 12:45:00,
2013-03-25 08:50:00,36.3,22.5,29.87,WNW,299,2.0,19.0,57,0.00,,OVC044,0.00,VWS V14.01,2013-03-25 12:50:00,
2013-03-25 08:55:00,36.4,23.0,29.87,WSW,246,0.0,19.0,58,0.00,,OVC044,0.00,VWS V14.01,2013-03-25 12:55:00,
2013-03-25 08:59:00,36.3,22.5,29.87,North,11,7.0,13.0,57,0.00,,OVC044,0.00,VWS V14.01,2013-03-25 12:59:00,
2013-03-25 09:00:00,36.3,22.5,29.86,SW,232,8.0,19.0,57,0.00,,OVC060,0.00,VWS V14.01,2013-03-25 13:00:00,
2013-03-25 09:04:00,36.4,23.0,29.87,NNW,328,4.0,18.0,58,0.00,,OVC044,0.00,VWS V14.01,2013-03-25 13:04:00,
2013-03-25 09:10:00,36.5,23.1,29.87,WSW,244,2.0,18.0,58,0.00,,OVC044,0.00,VWS V14.01,2013-03-25 13:10:00,
2013-03-25 09:14:00,36.6,23.2,29.87,NNE,23,2.0,18.0,58,0.00,,OVC044,0.00,VWS V14.01,2013-03-25 13:14:00,
2013-03-25 09:19:00,36.6,22.8,29.88,NNE,13,0.0,18.0,57,0.00,,OVC044,0.00,VWS V14.01,2013-03-25 13:19:00,
2013-03-25 09:24:00,36.6,23.2,29.89,WSW,249,6.0,18.0,58,0.00,,OVC044,0.00,VWS V14.01,2013-03-25 13:24:00,
2013-03-25 09:29:00,36.8,23.0,29.89,WSW,245,8.0,8.0,57,0.00,,OVC044,0.00,VWS V14.01,2013-03-25 13:29:00,
2013-03-25 09:30:00,36.8,23.0,29.89,SSW,208,4.0,18.0,57,0.00,,OVC060,0.00,VWS V14.01,2013-03-25 13:30:00,
2013-03-25 09:34:00,36.8,23.0,29.89,West,275,2.0,10.0,57,0.00,,OVC044,0.00,VWS V14.01,2013-03-25 13:34:00,
2013-03-25 09:39:00,36.9,23.5,29.89,West,281,4.0,12.0,58,0.00,,OVC043,0.00,VWS V14.01,2013-03-25 13:39:00,
2013-03-25 09:44:00,37.0,24.0,29.90,WSW,244,18.0,18.0,59,0.00,,OVC043,0.00,VWS V14.01,2013-03-25 13:44:00,
2013-03-25 09:49:00,36.8,23.8,29.90,SW,222,0.0,18.0,59,0.00,,OVC043,0.00,VWS V14.01,2013-03-25 13:49:00,
2013-03-25 09:55:00,36.7,23.3,29.90,NNW,327,2.0,18.0,58,0.00,,OVC043,0.00,VWS V14.01,2013-03-25 13:55:00,
2013-03-25 10:00:00,36.9,23.9,29.90,North,5,6.0,6.0,59,0.00,,OVC043,0.00,VWS V14.01,2013-03-25 14:00:00,
2013-03-25 10:05:00,36.8,23.8,29.91,WSW,242,2.0,11.0,59,0.00,,OVC043,0.00,VWS V14.01,2013-03-25 14:05:00,
2013-03-25 10:10:00,36.9,23.5,29.91,WNW,284,11.0,14.0,58,0.00,,OVC043,0.00,VWS V14.01,2013-03-25 14:10:00,
2013-03-25 10:15:00,37.0,24.0,29.91,North,355,5.0,14.0,59,0.00,,OVC043,0.00,VWS V14.01,2013-03-25 14:15:00,
2013-03-25 10:20:00,37.0,24.4,29.92,West,268,9.0,14.0,60,0.00,,OVC043,0.00,VWS V14.01,2013-03-25 14:20:00,
2013-03-25 10:25:00,37.2,23.4,29.92,West,267,2.0,14.0,57,0.00,,OVC043,0.00,VWS V14.01,2013-03-25 14:25:00,
2013-03-25 10:30:00,37.3,23.9,29.92,SW,231,10.0,11.0,58,0.00,,OVC043,0.00,VWS V14.01,2013-03-25 14:30:00,
2013-03-25 10:35:00,37.1,23.7,29.92,WSW,253,6.0,11.0,58,0.00,,OVC043,0.00,VWS V14.01,2013-03-25 14:35:00,
2013-03-25 10:40:00,37.0,24.0,29.92,WSW,238,0.0,11.0,59,0.00,,OVC043,0.00,VWS V14.01,2013-03-25 14:40:00,
2013-03-25 10:45:00,37.2,24.2,29.92,West,260,0.0,19.0,59,0.00,,OVC043,0.00,VWS V14.01,2013-03-25 14:45:00,
2013-03-25 10:50:00,37.4,23.1,29.93,SW,219,5.0,19.0,56,0.00,,OVC043,0.00,VWS V14.01,2013-03-25 14:50:00,
2013-03-25 10:55:00,37.7,23.4,29.93,SSW,211,3.0,19.0,56,0.00,,OVC043,0.00,VWS V14.01,2013-03-25 14:55:00,
2013-03-25 11:00:00,37.8,22.7,29.93,SW,236,3.0,16.0,54,0.00,,OVC043,0.00,VWS V14.01,2013-03-25 15:00:00,
2013-03-25 11:05:00,37.9,22.8,29.93,WSW,237,9.0,18.0,54,0.00,,OVC043,0.00,VWS V14.01,2013-03-25 15:05:00,
2013-03-25 11:10:00,38.1,22.9,29.94,NE,40,4.0,18.0,54,0.00,,OVC043,0.00,VWS V14.01,2013-03-25 15:10:00,
2013-03-25 11:15:00,37.9,22.8,29.94,West,275,8.0,18.0,54,0.00,,OVC043,0.00,VWS V14.01,2013-03-25 15:15:00,
2013-03-25 11:20:00,38.0,22.9,29.94,WSW,245,5.0,18.0,54,0.00,,OVC043,0.00,VWS V14.01,2013-03-25 15:20:00,
2013-03-25 11:25:00,38.4,23.2,29.94,SW,232,4.0,18.0,54,0.00,,OVC043,0.00,VWS V14.01,2013-03-25 15:25:00,
2013-03-25 11:30:00,38.3,23.1,29.95,WSW,253,3.0,4.0,54,0.00,,OVC043,0.00,VWS V14.01,2013-03-25 15:30:00,
2013-03-25 11:35:00,38.1,23.4,29.95,WNW,282,5.0,16.0,55,0.00,,OVC042,0.00,VWS V14.01,2013-03-25 15:35:00,
2013-03-25 11:40:00,38.0,22.9,29.94,WSW,256,1.0,16.0,54,0.00,,OVC042,0.00,VWS V14.01,2013-03-25 15:40:00,
2013-03-25 11:45:00,38.4,24.1,29.95,SW,226,1.0,16.0,56,0.00,,OVC042,0.00,VWS V14.01,2013-03-25 15:45:00,
2013-03-25 11:50:00,38.7,23.5,29.95,WSW,256,7.0,16.0,54,0.00,,OVC042,0.00,VWS V14.01,2013-03-25 15:50:00,
2013-03-25 11:55:00,38.6,23.8,29.95,WSW,240,0.0,16.0,55,0.00,,OVC042,0.00,VWS V14.01,2013-03-25 15:55:00,
2013-03-25 12:00:00,38.1,23.4,29.95,SW,234,2.0,12.0,55,0.00,,OVC042,0.00,VWS V14.01,2013-03-25 16:00:00,
2013-03-25 12:05:00,38.0,23.7,29.96,SSW,202,6.0,14.0,56,0.00,,OVC042,0.00,VWS V14.01,2013-03-25 16:05:00,
2013-03-25 12:10:00,37.8,24.4,29.96,SW,220,3.0,14.0,58,0.00,,OVC042,0.00,VWS V14.01,2013-03-25 16:10:00,
2013-03-25 12:15:00,37.9,24.0,29.96,North,360,1.0,14.0,57,0.00,,OVC042,0.00,VWS V14.01,2013-03-25 16:15:00,
2013-03-25 12:20:00,38.2,24.7,29.96,NW,311,3.0,14.0,58,0.00,,OVC042,0.00,VWS V14.01,2013-03-25 16:20:00,
2013-03-25 12:25:00,38.6,24.3,29.96,SW,218,9.0,14.0,56,0.00,,OVC042,0.00,VWS V14.01,2013-03-25 16:25:00,
2013-03-25 12:30:00,38.4,24.1,29.96,SW,227,4.0,8.0,56,0.00,,OVC042,0.00,VWS V14.01,2013-03-25 16:30:00,
2013-03-25 12:35:00,38.5,23.3,29.96,West,274,5.0,14.0,54,0.00,,OVC044,0.00,VWS V14.01,2013-03-25 16:35:00,
2013-03-25 12:40:00,38.8,23.6,29.96,West,265,1.0,14.0,54,0.00,,OVC044,0.00,VWS V14.01,2013-03-25 16:40:00,
2013-03-25 12:45:00,39.1,23.9,29.97,North,5,8.0,19.0,54,0.00,,OVC044,0.00,VWS V14.01,2013-03-25 16:45:00,
2013-03-25 12:50:00,39.2,23.5,29.96,NNE,12,0.0,19.0,53,0.00,,OVC044,0.00,VWS V14.01,2013-03-25 16:50:00,
2013-03-25 12:55:00,39.4,23.2,29.96,West,277,4.0,19.0,52,0.00,,OVC044,0.00,VWS V14.01,2013-03-25 16:55:00,
2013-03-25 13:00:00,40.7,24.9,29.96,SE,140,3.0,11.0,53,0.00,,OVC044,0.00,VWS V14.01,2013-03-25 17:00:00,
2013-03-25 13:05:00,40.9,23.2,29.96,WSW,240,2.0,14.0,49,0.00,,OVC044,0.00,VWS V14.01,2013-03-25 17:05:00,
2013-03-25 13:10:00,40.9,23.7,29.96,West,271,6.0,14.0,50,0.00,,OVC044,0.00,VWS V14.01,2013-03-25 17:10:00,
2013-03-25 13:15:00,40.6,23.9,29.96,West,278,4.0,14.0,51,0.00,,OVC044,0.00,VWS V14.01,2013-03-25 17:15:00,
2013-03-25 13:20:00,40.2,23.5,29.97,West,275,8.0,14.0,51,0.00,,OVC044,0.00,VWS V14.01,2013-03-25 17:20:00,
2013-03-25 13:25:00,40.1,24.4,29.97,WNW,298,4.0,14.0,53,0.00,,OVC044,0.00,VWS V14.01,2013-03-25 17:25:00,
2013-03-25 13:30:00,40.1,24.4,29.97,West,259,10.0,10.0,53,0.00,,OVC044,0.00,VWS V14.01,2013-03-25 17:30:00,
2013-03-25 13:35:00,39.6,24.3,29.97,NW,311,3.0,11.0,54,0.00,,OVC046,0.00,VWS V14.01,2013-03-25 17:35:00,
2013-03-25 13:40:00,39.9,24.6,29.96,South,182,0.0,11.0,54,0.00,,OVC046,0.00,VWS V14.01,2013-03-25 17:40:00,
2013-03-25 13:45:00,40.3,24.1,29.96,SW,225,9.0,14.0,52,0.00,,OVC046,0.00,VWS V14.01,2013-03-25 17:45:00,
2013-03-25 13:50:00,40.3,24.5,29.96,WNW,293,4.0,16.0,53,0.00,,OVC046,0.00,VWS V14.01,2013-03-25 17:50:00,
2013-03-25 13:55:00,40.3,24.5,29.96,SW,216,1.0,16.0,53,0.00,,OVC046,0.00,VWS V14.01,2013-03-25 17:55:00,
2013-03-25 14:00:00,39.6,24.3,29.97,WSW,252,4.0,10.0,54,0.00,,OVC046,0.00,VWS V14.01,2013-03-25 18:00:00,
2013-03-25 14:05:00,40.0,25.1,29.96,SW,217,6.0,17.0,55,0.00,,OVC046,0.00,VWS V14.01,2013-03-25 18:05:00,
2013-03-25 14:10:00,40.3,25.0,29.96,WSW,241,4.0,17.0,54,0.00,,OVC046,0.00,VWS V14.01,2013-03-25 18:10:00,
2013-03-25 14:15:00,41.1,25.3,29.95,SW,223,2.0,17.0,53,0.00,,OVC046,0.00,VWS V14.01,2013-03-25 18:15:00,
2013-03-25 14:20:00,41.4,25.1,29.96,SW,234,6.0,17.0,52,0.00,,OVC046,0.00,VWS V14.01,2013-03-25 18:20:00,
2013-03-25 14:25:00,41.9,25.6,29.96,SW,235,4.0,17.0,52,0.00,,OVC046,0.00,VWS V14.01,2013-03-25 18:25:00,
2013-03-25 14:30:00,42.6,25.8,29.96,SW,232,3.0,10.0,51,0.00,,OVC046,0.00,VWS V14.01,2013-03-25 18:30:00,
2013-03-25 14:35:00,41.9,25.1,29.96,WSW,238,1.0,12.0,51,0.00,,OVC044,0.00,VWS V14.01,2013-03-25 18:35:00,
2013-03-25 14:40:00,41.2,25.4,29.96,SW,227,4.0,16.0,53,0.00,,OVC044,0.00,VWS V14.01,2013-03-25 18:40:00,
2013-03-25 14:45:00,41.9,25.1,29.96,SW,236,8.0,16.0,51,0.00,,OVC044,0.00,VWS V14.01,2013-03-25 18:45:00,
2013-03-25 14:50:00,41.7,24.0,29.96,SSW,209,5.0,16.0,49,0.00,,OVC044,0.00,VWS V14.01,2013-03-25 18:50:00,
2013-03-25 14:55:00,41.7,24.9,29.96,SSW,213,6.0,16.0,51,0.00,,OVC044,0.00,VWS V14.01,2013-03-25 18:55:00,
2013-03-25 15:00:00,41.5,24.3,29.96,NNW,347,3.0,9.0,50,0.00,,OVC044,0.00,VWS V14.01,2013-03-25 19:00:00,
2013-03-25 15:05:00,41.8,24.5,29.96,South,182,12.0,16.0,50,0.00,,OVC044,0.00,VWS V14.01,2013-03-25 19:05:00,
2013-03-25 15:10:00,41.5,25.2,29.96,SSW,202,2.0,16.0,52,0.00,,OVC044,0.00,VWS V14.01,2013-03-25 19:10:00,
2013-03-25 15:15:00,41.8,24.5,29.96,SSW,206,3.0,16.0,50,0.00,,OVC044,0.00,VWS V14.01,2013-03-25 19:15:00,
2013-03-25 15:20:00,41.8,24.5,29.96,NNW,341,9.0,16.0,50,0.00,,OVC044,0.00,VWS V14.01,2013-03-25 19:20:00,
2013-03-25 15:25:00,41.5,24.3,29.96,West,266,2.0,16.0,50,0.00,,OVC044,0.00,VWS V14.01,2013-03-25 19:25:00,
2013-03-25 15:30:00,41.4,23.7,29.96,West,277,5.0,8.0,49,0.00,,OVC044,0.00,VWS V14.01,2013-03-25 19:30:00,
2013-03-25 15:35:00,42.1,24.3,29.96,WSW,240,4.0,12.0,49,0.00,,OVC044,0.00,VWS V14.01,2013-03-25 19:35:00,
2013-03-25 15:40:00,42.5,24.2,29.96,WNW,295,4.0,13.0,48,0.00,,OVC044,0.00,VWS V14.01,2013-03-25 19:40:00,
2013-03-25 15:45:00,41.7,24.0,29.97,SW,230,8.0,15.0,49,0.00,,OVC044,0.00,VWS V14.01,2013-03-25 19:45:00,
2013-03-25 15:50:00,41.2,24.0,29.97,WSW,242,4.0,15.0,50,0.00,,OVC044,0.00,VWS V14.01,2013-03-25 19:50:00,
2013-03-25 15:55:00,41.0,23.8,29.97,SSE,163,0.0,18.0,50,0.00,,OVC044,0.00,VWS V14.01,2013-03-25 19:55:00,
2013-03-25 16:00:00,41.3,24.1,29.97,NE,42,2.0,11.0,50,0.00,,OVC044,0.00,VWS V14.01,2013-03-25 20:00:00,
2013-03-25 16:05:00,41.5,23.8,29.97,NW,309,2.0,14.0,49,0.00,,OVC044,0.00,VWS V14.01,2013-03-25 20:05:00,
2013-03-25 16:10:00,41.3,24.5,29.97,SSW,204,3.0,14.0,51,0.00,,OVC044,0.00,VWS V14.01,2013-03-25 20:10:00,
2013-03-25 16:15:00,41.7,24.0,29.97,WSW,251,3.0,14.0,49,0.00,,OVC044,0.00,VWS V14.01,2013-03-25 20:15:00,
2013-03-25 16:20:00,41.9,23.7,29.97,WNW,291,9.0,14.0,48,0.00,,OVC044,0.00,VWS V14.01,2013-03-25 20:20:00,
2013-03-25 16:25:00,41.1,23.4,29.97,WSW,238,2.0,14.0,49,0.00,,OVC044,0.00,VWS V14.01,2013-03-25 20:25:00,
2013-03-25 16:30:00,40.6,23.9,29.98,WSW,243,1.0,6.0,51,0.00,,OVC044,0.00,VWS V14.01,2013-03-25 20:30:00,
2013-03-25 16:35:00,40.5,24.3,29.98,West,275,6.0,11.0,52,0.00,,OVC060,0.00,VWS V14.01,2013-03-25 20:35:00,
2013-03-25 16:40:00,40.4,23.7,29.98,NNE,20,6.0,11.0,51,0.00,,OVC060,0.00,VWS V14.01,2013-03-25 20:40:00,
2013-03-25 16:45:00,40.4,24.2,29.98,WSW,246,2.0,11.0,52,0.00,,OVC060,0.00,VWS V14.01,2013-03-25 20:45:00,
2013-03-25 16:50:00,40.3,24.1,29.98,WNW,287,1.0,16.0,52,0.00,,OVC060,0.00,VWS V14.01,2013-03-25 20:50:00,
2013-03-25 16:55:00,40.2,24.5,29.98,SW,229,4.0,16.0,53,0.00,,OVC060,0.00,VWS V14.01,2013-03-25 20:55:00,
2013-03-25 17:00:00,40.3,23.6,29.99,West,281,8.0,8.0,51,0.00,,OVC060,0.00,VWS V14.01,2013-03-25 21:00:00,
2013-03-25 17:05:00,40.2,24.0,29.98,West,269,0.0,22.0,52,0.00,,OVC060,0.00,VWS V14.01,2013-03-25 21:05:00,
2013-03-25 17:10:00,40.2,24.0,29.99,WSW,254,19.0,22.0,52,0.00,,OVC060,0.00,VWS V14.01,2013-03-25 21:10:00,
2013-03-25 17:15:00,40.2,24.0,29.99,West,273,3.0,22.0,52,0.00,,OVC060,0.00,VWS V14.01,2013-03-25 21:15:00,
2013-03-25 17:20:00,40.0,23.8,29.99,West,269,5.0,22.0,52,0.00,,OVC060,0.00,VWS V14.01,2013-03-25 21:20:00,
2013-03-25 17:25:00,40.0,23.4,30.00,WSW,251,7.0,22.0,51,0.00,,OVC060,0.00,VWS V14.01,2013-03-25 21:25:00,
2013-03-25 17:30:00,39.7,23.5,30.00,SSW,213,1.0,7.0,52,0.00,,OVC060,0.00,VWS V14.01,2013-03-25 21:30:00,
2013-03-25 17:35:00,39.8,23.6,30.00,SW,236,0.0,10.0,52,0.00,,BKN050,0.00,VWS V14.01,2013-03-25 21:35:00,
2013-03-25 17:40:00,39.7,23.5,30.00,WSW,240,6.0,12.0,52,0.00,,BKN050,0.00,VWS V14.01,2013-03-25 21:40:00,
2013-03-25 17:45:00,39.6,23.9,30.00,West,280,9.0,15.0,53,0.00,,BKN050,0.00,VWS V14.01,2013-03-25 21:45:00,
2013-03-25 17:50:00,39.5,23.8,30.00,West,272,2.0,15.0,53,0.00,,BKN050,0.00,VWS V14.01,2013-03-25 21:50:00,
2013-03-25 17:55:00,39.6,23.9,30.01,NE,36,4.0,15.0,53,0.00,,BKN050,0.00,VWS V14.01,2013-03-25 21:55:00,
2013-03-25 18:00:00,39.5,23.8,30.01,NNW,338,1.0,5.0,53,0.00,,BKN050,0.00,VWS V14.01,2013-03-25 22:00:00,
2013-03-25 18:05:00,39.5,22.9,30.01,NNW,345,2.0,19.0,51,0.00,,BKN050,0.00,VWS V14.01,2013-03-25 22:05:00,
2013-03-25 18:10:00,39.4,23.2,30.02,SW,232,1.0,19.0,52,0.00,,BKN050,0.00,VWS V14.01,2013-03-25 22:10:00,
2013-03-25 18:15:00,39.4,23.2,30.02,West,262,3.0,19.0,52,0.00,,BKN050,0.00,VWS V14.01,2013-03-25 22:15:00,
2013-03-25 18:20:00,39.1,23.0,30.02,NW,315,4.0,19.0,52,0.00,,BKN050,0.00,VWS V14.01,2013-03-25 22:20:00,
2013-03-25 18:25:00,39.2,23.1,30.03,SW,215,6.0,19.0,52,0.00,,BKN050,0.00,VWS V14.01,2013-03-25 22:25:00,
2013-03-25 18:30:00,39.1,23.9,30.03,NNE,19,2.0,3.0,54,0.00,,BKN050,0.00,VWS V14.01,2013-03-25 22:30:00,
2013-03-25 18:35:00,39.1,23.4,30.03,WSW,256,2.0,12.0,53,0.00,,OVC050,0.00,VWS V14.01,2013-03-25 22:35:00,
2013-03-25 18:40:00,38.9,23.2,30.03,NW,309,10.0,13.0,53,0.00,,OVC050,0.00,VWS V14.01,2013-03-25 22:40:00,
2013-03-25 18:45:00,38.6,23.4,30.04,SW,227,1.0,13.0,54,0.00,,OVC050,0.00,VWS V14.01,2013-03-25 22:45:00,
2013-03-25 18:50:00,38.4,23.2,30.04,NE,34,6.0,13.0,54,0.00,,OVC050,0.00,VWS V14.01,2013-03-25 22:50:00,
2013-03-25 18:55:00,38.4,23.7,30.04,NNW,348,5.0,13.0,55,0.00,,OVC050,0.00,VWS V14.01,2013-03-25 22:55:00,
2013-03-25 19:00:00,38.2,23.5,30.04,WSW,252,3.0,15.0,55,0.00,,OVC050,0.00,VWS V14.01,2013-03-25 23:00:00,
2013-03-25 19:05:00,38.2,23.0,30.04,ENE,57,2.0,15.0,54,0.00,,OVC050,0.00,VWS V14.01,2013-03-25 23:05:00,
2013-03-25 19:10:00,38.2,23.5,30.05,WSW,241,1.0,15.0,55,0.00,,OVC050,0.00,VWS V14.01,2013-03-25 23:10:00,
2013-03-25 19:15:00,38.0,22.9,30.05,West,267,2.0,17.0,54,0.00,,OVC050,0.00,VWS V14.01,2013-03-25 23:15:00,
2013-03-25 19:20:00,38.0,22.9,30.05,SSW,200,7.0,17.0,54,0.00,,OVC050,0.00,VWS V14.01,2013-03-25 23:20:00,
2013-03-25 19:25:00,37.9,22.8,30.06,WNW,302,3.0,18.0,54,0.00,,OVC050,0.00,VWS V14.01,2013-03-25 23:25:00,
2013-03-25 19:30:00,37.8,23.1,30.06,NNE,26,1.0,4.0,55,0.00,,OVC050,0.00,VWS V14.01,2013-03-25 23:30:00,
2013-03-25 19:35:00,37.8,23.1,30.06,West,265,1.0,5.0,55,0.00,,OVC055,0.00,VWS V14.01,2013-03-25 23:35:00,
2013-03-25 19:40:00,37.8,24.0,30.07,WSW,256,2.0,8.0,57,0.00,,OVC055,0.00,VWS V14.01,2013-03-25 23:40:00,
2013-03-25 19:45:00,37.7,23.9,30.07,SW,225,0.0,8.0,57,0.00,,OVC055,0.00,VWS V14.01,2013-03-25 23:45:00,
2013-03-25 19:50:00,37.6,23.8,30.07,WNW,284,2.0,8.0,57,0.00,,OVC055,0.00,VWS V14.01,2013-03-25 23:50:00,
2013-03-25 19:55:00,37.5,23.2,30.07,WNW,282,5.0,13.0,56,0.00,,OVC055,0.00,VWS V14.01,2013-03-25 23:55:00,
2013-03-25 20:00:00,37.4,23.1,30.07,NNE,29,0.0,2.0,56,0.00,,OVC055,0.00,VWS V14.01,2013-03-26 00:00:00,
2013-03-25 20:05:00,37.3,23.5,30.07,ENE,57,1.0,10.0,57,0.00,,OVC060,0.00,VWS V14.01,2013-03-26 00:05:00,
2013-03-25 20:10:00,37.3,23.1,30.07,SSW,205,7.0,14.0,56,0.00,,OVC060,0.00,VWS V14.01,2013-03-26 00:10:00,
2013-03-25 20:15:00,37.2,23.4,30.07,NW,320,2.0,14.0,57,0.00,,OVC060,0.00,VWS V14.01,2013-03-26 00:15:00,
2013-03-25 20:20:00,37.2,23.4,30.07,West,260,0.0,14.0,57,0.00,,OVC060,0.00,VWS V14.01,2013-03-26 00:20:00,
2013-03-25 20:25:00,37.1,23.3,30.08,West,275,7.0,14.0,57,0.00,,OVC060,0.00,VWS V14.01,2013-03-26 00:25:00,
2013-03-25 20:30:00,37.0,23.2,30.08,SSE,166,2.0,4.0,57,0.00,,OVC060,0.00,VWS V14.01,2013-03-26 00:30:00,
2013-03-25 20:35:00,37.0,23.6,30.08,WSW,243,2.0,6.0,58,0.00,,OVC060,0.00,VWS V14.01,2013-03-26 00:35:00,
2013-03-25 20:40:00,37.0,23.6,30.08,SW,215,3.0,6.0,58,0.00,,OVC060,0.00,VWS V14.01,2013-03-26 00:40:00,
2013-03-25 20:45:00,37.1,23.3,30.08,West,280,1.0,6.0,57,0.00,,OVC060,0.00,VWS V14.01,2013-03-26 00:45:00,
2013-03-25 20:50:00,37.1,23.3,30.08,NNW,340,2.0,7.0,57,0.00,,OVC060,0.00,VWS V14.01,2013-03-26 00:50:00,
2013-03-25 20:55:00,37.0,23.6,30.09,West,267,2.0,11.0,58,0.00,,OVC060,0.00,VWS V14.01,2013-03-26 00:55:00,
2013-03-25 21:00:00,37.0,23.6,30.09,WSW,254,1.0,4.0,58,0.00,,OVC060,0.00,VWS V14.01,2013-03-26 01:00:00,
2013-03-25 21:05:00,37.0,24.0,30.09,NNW,338,0.0,15.0,59,0.00,,OVC060,0.00,VWS V14.01,2013-03-26 01:05:00,
2013-03-25 21:10:00,36.8,24.2,30.09,WSW,252,2.0,15.0,60,0.00,,OVC060,0.00,VWS V14.01,2013-03-26 01:10:00,
2013-03-25 21:15:00,36.7,24.5,30.09,West,275,0.0,15.0,61,0.00,,OVC060,0.00,VWS V14.01,2013-03-26 01:15:00,
2013-03-25 21:20:00,36.6,24.4,30.10,SW,229,2.0,15.0,61,0.00,,OVC060,0.00,VWS V14.01,2013-03-26 01:20:00,
2013-03-25 21:25:00,36.4,24.2,30.09,NNW,348,3.0,15.0,61,0.00,,OVC060,0.00,VWS V14.01,2013-03-26 01:25:00,
2013-03-25 21:30:00,36.3,24.1,30.09,NNE,21,0.0,1.0,61,0.00,,OVC060,0.00,VWS V14.01,2013-03-26 01:30:00,
2013-03-25 21:35:00,36.2,24.1,30.10,West,259,2.0,8.0,61,0.00,,OVC060,0.00,VWS V14.01,2013-03-26 01:35:00,
2013-03-25 21:40:00,36.1,24.0,30.10,WSW,247,5.0,12.0,61,0.00,,OVC060,0.00,VWS V14.01,2013-03-26 01:40:00,
2013-03-25 21:45:00,36.1,24.0,30.10,SW,223,0.0,12.0,61,0.00,,OVC060,0.00,VWS V14.01,2013-03-26 01:45:00,
2013-03-25 21:50:00,36.0,23.5,30.10,WSW,254,1.0,12.0,60,0.00,,OVC060,0.00,VWS V14.01,2013-03-26 01:50:00,
2013-03-25 21:55:00,35.9,23.8,30.10,SW,217,2.0,12.0,61,0.00,,OVC060,0.00,VWS V14.01,2013-03-26 01:55:00,
2013-03-25 22:00:00,35.9,23.8,30.10,NNW,342,2.0,3.0,61,0.00,,OVC060,0.00,VWS V14.01,2013-03-26 02:00:00,
2013-03-25 22:05:00,35.9,23.8,30.10,West,270,3.0,8.0,61,0.00,,OVC060,0.00,VWS V14.01,2013-03-26 02:05:00,
2013-03-25 22:10:00,35.9,23.8,30.11,West,265,0.0,8.0,61,0.00,,OVC060,0.00,VWS V14.01,2013-03-26 02:10:00,
2013-03-25 22:15:00,36.0,23.5,30.11,SW,225,0.0,13.0,60,0.00,,OVC060,0.00,VWS V14.01,2013-03-26 02:15:00,
2013-03-25 22:20:00,36.0,23.5,30.11,West,280,2.0,13.0,60,0.00,,OVC060,0.00,VWS V14.01,2013-03-26 02:20:00,
2013-03-25 22:25:00,36.1,23.6,30.11,West,265,4.0,13.0,60,0.00,,OVC060,0.00,VWS V14.01,2013-03-26 02:25:00,
2013-03-25 22:30:00,36.1,23.2,30.11,West,260,2.0,6.0,59,0.00,,OVC060,0.00,VWS V14.01,2013-03-26 02:30:00,
2013-03-25 22:35:00,36.1,23.2,30.11,SW,224,5.0,9.0,59,0.00,,BKN060,0.00,VWS V14.01,2013-03-26 02:35:00,
2013-03-25 22:40:00,36.1,23.2,30.11,WSW,253,4.0,13.0,59,0.00,,BKN060,0.00,VWS V14.01,2013-03-26 02:40:00,
2013-03-25 22:45:00,36.1,23.2,30.12,WNW,292,0.0,13.0,59,0.00,,BKN060,0.00,VWS V14.01,2013-03-26 02:45:00,
2013-03-25 22:50:00,36.1,23.2,30.12,WNW,284,4.0,13.0,59,0.00,,BKN060,0.00,VWS V14.01,2013-03-26 02:50:00,
2013-03-25 22:55:00,36.1,23.2,30.12,WNW,294,1.0,13.0,59,0.00,,BKN060,0.00,VWS V14.01,2013-03-26 02:55:00,
2013-03-25 23:00:00,36.1,23.2,30.12,West,278,3.0,5.0,59,0.00,,BKN060,0.00,VWS V14.01,2013-03-26 03:00:00,
2013-03-25 23:05:00,36.1,23.2,30.12,West,263,3.0,8.0,59,0.00,,BKN060,0.00,VWS V14.01,2013-03-26 03:05:00,
2013-03-25 23:10:00,36.1,23.6,30.12,WSW,252,3.0,8.0,60,0.00,,BKN060,0.00,VWS V14.01,2013-03-26 03:10:00,
2013-03-25 23:15:00,36.1,23.6,30.12,West,281,2.0,8.0,60,0.00,,BKN060,0.00,VWS V14.01,2013-03-26 03:15:00,
2013-03-25 23:20:00,36.1,23.6,30.12,SSW,197,1.0,12.0,60,0.00,,BKN060,0.00,VWS V14.01,2013-03-26 03:20:00,
2013-03-25 23:25:00,36.0,23.1,30.13,North,5,0.0,12.0,59,0.00,,BKN060,0.00,VWS V14.01,2013-03-26 03:25:00,
2013-03-25 23:30:00,36.1,23.6,30.13,West,263,3.0,3.0,60,0.00,,BKN060,0.00,VWS V14.01,2013-03-26 03:30:00,
2013-03-25 23:35:00,36.0,23.1,30.13,NE,47,4.0,8.0,59,0.00,,BKN055,0.00,VWS V14.01,2013-03-26 03:35:00,
2013-03-25 23:40:00,35.9,23.0,30.13,SW,227,3.0,16.0,59,0.00,,BKN055,0.00,VWS V14.01,2013-03-26 03:40:00,
2013-03-25 23:45:00,35.8,23.3,30.13,West,273,1.0,16.0,60,0.00,,BKN055,0.00,VWS V14.01,2013-03-26 03:45:00,
2013-03-25 23:50:00,35.6,23.1,30.14,North,10,1.0,16.0,60,0.00,,BKN055,0.00,VWS V14.01,2013-03-26 03:50:00,
2013-03-25 23:55:00,35.5,23.0,30.14,West,278,0.0,16.0,60,0.00,,BKN055,0.00,VWS V14.01,2013-03-26 03:55:00,